Weather History for Mandan, ND

Change the Weather History Date:

Sunday, December 15, 2013

  Actual Average (KBIS) Record (KBIS)
Temperature  
Mean Temperature 4 °F 16 °F  
Max Temperature 8 °F 26 °F 57 °F (1939)
Min Temperature 1 °F 6 °F -30 °F (1963)
Degree Days  
Heating Degree Days 62 49  
Month to date heating degree days 699  
Since 1 July heating degree days 2685  
Cooling Degree Days 0 0  
Month to date cooling degree days 0  
Year to date cooling degree days 520  
Moisture  
Dew Point 0 °F    
Average Humidity 83    
Maximum Humidity 92    
Minimum Humidity 78    
Precipitation  
Precipitation 0.08 in 0.02 in 0.25 in (1893)
Month to date precipitation 0.23  
Year to date precipitation 17.59  
Snow  
Snow 0.00 in 0.30 in 2.30 in (2005)
Month to date snowfall 4.1  
Since 1 July snowfall 15.3  
Snow Depth -    
Sea Level Pressure  
Sea Level Pressure 29.92 in    
Wind  
Wind Speed 12 mph (SE)    
Max Wind Speed 16 mph    
Max Gust Speed 20 mph    
Visibility 9 miles    
Events Snow    
T = Trace of Precipitation, MM = Missing Value Source: NWS Daily Summary

Daily Weather History Graph

Daily Weather History Graph

Search for Another Location

Airport:

Trip Planner

Search our weather history database for the weather conditions in past years. The results will help you decide how hot, cold, wet, or windy it might be!

Date:

Astronomy

Dec. 15, 2013 Rise Set
Actual Time 8:21 AM CST 4:55 PM CST
Civil Twilight 7:46 AM CST 5:31 PM CST
Nautical Twilight 7:08 AM CST 6:09 PM CST
Astronomical Twilight 6:31 AM CST 6:46 PM CST
Moon 4:05 PM CST (12/15) 6:35 AM CST (12/15)
Length of Visible Light 9h 44m
Length of Day
8h 33m
Waxing Gibbous, 98% of the Moon is Illuminated
Dec 15
Waxing Gibbous
Dec 17
Full
Dec 25
Last Quarter
Jan 1
New
Jan 7
First Quarter

Hourly Weather History & Observations

Time (CST) Temp. Windchill Dew Point Humidity Pressure Visibility Wind Dir Wind Speed Gust Speed Precip Events Conditions
12:15 AM 1.4 °F -16.1 °F -2.2 °F 85% 30.03 in 10.0 mi East 12.7 mph - N/A   Overcast
12:35 AM 1.4 °F -14.5 °F -2.2 °F 85% 30.04 in 10.0 mi East 10.4 mph - N/A   Overcast
12:55 AM 1.4 °F -15.3 °F -2.2 °F 85% 30.04 in 10.0 mi East 11.5 mph - N/A Snow Light Snow
1:15 AM 1.4 °F -13.5 °F -2.2 °F 85% 30.05 in 10.0 mi East 9.2 mph - N/A Snow Light Snow
1:35 AM 1.4 °F -16.1 °F -2.2 °F 85% 30.04 in 8.0 mi East 12.7 mph - N/A Snow Light Snow
1:55 AM 1.4 °F -15.3 °F -2.2 °F 85% 30.03 in 8.0 mi East 11.5 mph - 0.01 in Snow Light Snow
2:15 AM 1.4 °F -14.5 °F -2.2 °F 85% 30.03 in 10.0 mi East 10.4 mph - N/A   Overcast
2:35 AM 1.4 °F -16.1 °F -2.2 °F 85% 30.03 in 10.0 mi East 12.7 mph - N/A   Overcast
2:55 AM 1.4 °F -15.3 °F -2.2 °F 85% 30.04 in 10.0 mi East 11.5 mph - N/A Snow Light Snow
3:15 AM 1.4 °F -14.5 °F -2.2 °F 85% 30.03 in 10.0 mi East 10.4 mph - N/A   Overcast
3:35 AM 1.4 °F -16.1 °F -2.2 °F 85% 30.03 in 10.0 mi East 12.7 mph - N/A   Overcast
3:55 AM 1.4 °F -17.6 °F -2.2 °F 85% 30.01 in 10.0 mi East 15.0 mph - N/A   Overcast
4:15 AM 1.4 °F -16.9 °F -2.2 °F 85% 30.01 in 10.0 mi East 13.8 mph - N/A   Overcast
4:35 AM 1.4 °F -14.5 °F -2.2 °F 85% 29.99 in 10.0 mi East 10.4 mph - N/A   Overcast
4:55 AM 1.4 °F -15.3 °F -2.2 °F 85% 30.00 in 10.0 mi East 11.5 mph - N/A   Overcast
5:15 AM 1.4 °F -16.1 °F -2.2 °F 85% 29.98 in 10.0 mi ESE 12.7 mph - N/A   Mostly Cloudy
5:35 AM 1.4 °F -16.1 °F -2.2 °F 85% 29.98 in 10.0 mi East 12.7 mph - N/A   Mostly Cloudy
5:55 AM 1.4 °F -15.3 °F -2.2 °F 85% 29.98 in 10.0 mi ESE 11.5 mph - N/A   Mostly Cloudy
6:15 AM 1.4 °F -14.5 °F -2.2 °F 85% 29.98 in 10.0 mi ESE 10.4 mph - N/A Snow Light Snow
6:35 AM 1.4 °F -14.5 °F -2.2 °F 85% 29.98 in 10.0 mi East 10.4 mph - N/A Snow Light Snow
6:55 AM 1.4 °F -15.3 °F -2.2 °F 85% 29.97 in 10.0 mi ESE 11.5 mph - N/A   Overcast
7:15 AM 1.4 °F -16.1 °F -0.4 °F 92% 29.96 in 6.0 mi ESE 12.7 mph - N/A Snow Light Snow
7:35 AM 1.4 °F -16.1 °F -0.4 °F 92% 29.96 in 3.0 mi ESE 12.7 mph - N/A Snow Light Snow
7:55 AM 1.4 °F -16.9 °F -0.4 °F 92% 29.95 in 3.0 mi ESE 13.8 mph - 0.01 in Snow Light Snow
8:15 AM 3.2 °F -13.9 °F -0.4 °F 85% 29.94 in 4.0 mi ESE 12.7 mph - N/A Snow Light Snow
8:35 AM 3.2 °F -13.1 °F -0.4 °F 85% 29.94 in 4.0 mi ESE 11.5 mph - 0.01 in Snow Light Snow
8:55 AM 3.2 °F -13.1 °F -0.4 °F 85% 29.94 in 4.0 mi SE 11.5 mph - 0.01 in Snow Light Snow
9:15 AM 3.2 °F -13.1 °F -0.4 °F 85% 29.94 in 4.0 mi ESE 11.5 mph - N/A Snow Light Snow
9:35 AM 5.0 °F -10.8 °F -0.4 °F 78% 29.94 in 4.0 mi SE 11.5 mph - 0.01 in Snow Light Snow
9:55 AM 5.0 °F -11.6 °F -0.4 °F 78% 29.93 in 4.0 mi ESE 12.7 mph - 0.02 in Snow Light Snow
10:15 AM 5.0 °F -12.3 °F -0.4 °F 78% 29.95 in 5.0 mi ESE 13.8 mph - N/A Snow Light Snow
10:35 AM 5.0 °F -10.0 °F -0.4 °F 78% 29.95 in 4.0 mi SE 10.4 mph - N/A Snow Light Snow
10:55 AM 5.0 °F -10.8 °F 1.4 °F 85% 29.94 in 2.5 mi SE 11.5 mph - 0.02 in Snow Light Snow
11:15 AM 5.0 °F -13.0 °F 1.4 °F 85% 29.94 in 5.0 mi SE 15.0 mph - N/A Snow Light Snow
11:35 AM 5.0 °F -13.6 °F -0.4 °F 78% 29.93 in 3.0 mi SE 16.1 mph - 0.01 in Snow Light Snow
11:55 AM 5.0 °F -13.0 °F -0.4 °F 78% 29.91 in 4.0 mi SE 15.0 mph 19.6 mph 0.01 in Snow Light Snow
12:15 PM 5.0 °F -13.6 °F -0.4 °F 78% 29.89 in 6.0 mi SE 16.1 mph - N/A Snow Light Snow
12:35 PM 5.0 °F -10.8 °F 1.4 °F 85% 29.91 in 10.0 mi SE 11.5 mph - N/A   Overcast
12:55 PM 5.0 °F -12.3 °F 1.4 °F 85% 29.89 in 10.0 mi SE 13.8 mph - N/A   Overcast
1:15 PM 6.8 °F -10.0 °F 1.4 °F 79% 29.89 in 10.0 mi SSE 13.8 mph - N/A   Mostly Cloudy
1:35 PM 6.8 °F -9.3 °F 1.4 °F 79% 29.88 in 10.0 mi SSE 12.7 mph - N/A   Mostly Cloudy
1:55 PM 6.8 °F -10.0 °F 1.4 °F 79% 29.89 in 10.0 mi SSE 13.8 mph - N/A   Mostly Cloudy
2:15 PM 6.8 °F -8.6 °F 1.4 °F 79% 29.88 in 10.0 mi SSE 11.5 mph - N/A   Mostly Cloudy
2:35 PM 6.8 °F -10.0 °F 1.4 °F 79% 29.88 in 10.0 mi SSE 13.8 mph - N/A   Mostly Cloudy
2:55 PM 6.8 °F -10.0 °F 1.4 °F 79% 29.86 in 10.0 mi SSE 13.8 mph - N/A   Mostly Cloudy
3:15 PM 6.8 °F -10.0 °F 1.4 °F 79% 29.86 in 10.0 mi SSE 13.8 mph - N/A   Mostly Cloudy
3:35 PM 6.8 °F -8.6 °F 1.4 °F 79% 29.87 in 10.0 mi SSE 11.5 mph - N/A   Mostly Cloudy
3:55 PM 6.8 °F -8.6 °F 1.4 °F 79% 29.87 in 10.0 mi SSE 11.5 mph - N/A   Mostly Cloudy
4:15 PM 6.8 °F -8.6 °F 1.4 °F 79% 29.87 in 10.0 mi South 11.5 mph - N/A   Mostly Cloudy
4:35 PM 6.8 °F -7.8 °F 1.4 °F 79% 29.87 in 10.0 mi South 10.4 mph - N/A   Mostly Cloudy
4:55 PM 6.8 °F -5.9 °F 1.4 °F 79% 29.86 in 10.0 mi SSE 8.1 mph - N/A   Mostly Cloudy
5:15 PM 6.8 °F -7.8 °F 1.4 °F 79% 29.85 in 10.0 mi SSE 10.4 mph - N/A   Scattered Clouds
5:35 PM 6.8 °F -5.9 °F 1.4 °F 79% 29.86 in 10.0 mi SE 8.1 mph - N/A   Partly Cloudy
5:55 PM 6.8 °F -4.8 °F 1.4 °F 79% 29.86 in 10.0 mi SE 6.9 mph - N/A   Scattered Clouds
6:15 PM 5.0 °F -8.1 °F 1.4 °F 85% 29.86 in 10.0 mi SE 8.1 mph - N/A   Overcast
6:35 PM 5.0 °F -6.9 °F 1.4 °F 85% 29.86 in 10.0 mi SE 6.9 mph - N/A   Overcast
6:55 PM 5.0 °F -8.1 °F 1.4 °F 85% 29.86 in 10.0 mi ESE 8.1 mph - N/A   Scattered Clouds
7:15 PM 5.0 °F -9.1 °F 1.4 °F 85% 29.85 in 10.0 mi ESE 9.2 mph - N/A   Clear
7:35 PM 5.0 °F -10.0 °F 1.4 °F 85% 29.84 in 10.0 mi SE 10.4 mph - N/A   Clear
7:55 PM 5.0 °F -10.0 °F 1.4 °F 85% 29.83 in 10.0 mi SSE 10.4 mph - N/A   Clear
8:15 PM 5.0 °F -8.1 °F 1.4 °F 85% 29.83 in 10.0 mi SE 8.1 mph - N/A   Scattered Clouds
8:35 PM 6.8 °F -4.8 °F 1.4 °F 79% 29.84 in 10.0 mi SSE 6.9 mph - N/A   Partly Cloudy
8:55 PM 6.8 °F -6.9 °F 3.2 °F 85% 29.82 in 10.0 mi South 9.2 mph - N/A   Mostly Cloudy
9:15 PM 6.8 °F -4.8 °F 3.2 °F 85% 29.82 in 10.0 mi South 6.9 mph - N/A   Overcast
9:35 PM 6.8 °F -6.9 °F 3.2 °F 85% 29.81 in 10.0 mi South 9.2 mph - N/A   Overcast
9:55 PM 6.8 °F -5.9 °F 1.4 °F 79% 29.81 in 10.0 mi South 8.1 mph - N/A   Overcast
10:15 PM 6.8 °F -5.9 °F 1.4 °F 79% 29.81 in 10.0 mi South 8.1 mph - N/A   Partly Cloudy
10:35 PM 5.0 °F -10.0 °F 1.4 °F 85% 29.80 in 10.0 mi South 10.4 mph - N/A   Clear
10:55 PM 5.0 °F -10.0 °F 1.4 °F 85% 29.79 in 10.0 mi South 10.4 mph - N/A   Clear
11:15 PM 5.0 °F -9.1 °F 1.4 °F 85% 29.78 in 10.0 mi South 9.2 mph - N/A   Partly Cloudy
11:35 PM 6.8 °F -4.8 °F 3.2 °F 85% 29.80 in 10.0 mi SSW 6.9 mph - N/A   Mostly Cloudy
11:55 PM 8.6 °F -6.3 °F 5.0 °F 85% 29.80 in 10.0 mi South 11.5 mph - N/A   Overcast